Salina, KS

9:59 PM CST on February 24, 2017 (GMT -0600)
Salina Municipal

Weather History for KSLN - October, 2012

Change the Weather History Date:

Monday, October 29, 2012

  Actual Average Record
Temperature  
Mean Temperature 56 °F 53 °F  
Max Temperature 69 °F 64 °F 93 °F (1937)
Min Temperature 42 °F 41 °F 16 °F (1913)
Degree Days  
Heating Degree Days 9 13  
Month to date heating degree days 277 242  
Since 1 July heating degree days 312 294  
Cooling Degree Days 0 0  
Month to date cooling degree days 14 32  
Year to date cooling degree days 2051 1644  
Growing Degree Days 6 (Base 50)    
Moisture  
Dew Point 29 °F    
Average Humidity 42    
Maximum Humidity 60    
Minimum Humidity 24    
Precipitation  
Precipitation 0.00 in 0.05 in 2.12 in (1971)
Month to date precipitation 1.19 2.17  
Year to date precipitation 17.58 29.21  
Sea Level Pressure  
Sea Level Pressure 30.12 in    
Wind  
Wind Speed 13 mph (South)    
Max Wind Speed 24 mph    
Max Gust Speed 31 mph    
Visibility 10 miles    
Events      
T = Trace of Precipitation, MM = Missing Value Source: NWS Daily Summary

Daily Weather History Graph

Daily Weather History Graph

Search for Another Location

Airport or City:

Trip Planner

Search our weather history database for the weather conditions in past years. The results will help you decide how hot, cold, wet, or windy it might be!

Date:

Astronomy

Oct. 29, 2012 Rise Set
Actual Time 7:54 AM CDT 6:33 PM CDT
Civil Twilight 7:27 AM CDT 7:00 PM CDT
Nautical Twilight 6:56 AM CDT 7:31 PM CDT
Astronomical Twilight 6:25 AM CDT 8:02 PM CDT
Moon 6:26 PM CDT (10/29) 7:46 AM CDT (10/29)
Length of Visible Light 11h 33m
Length of Day
10h 38m
Full, 100% of the Moon is Illuminated
Oct 29
Full
Oct 29
Full
Nov 6
Last Quarter
Nov 13
New
Nov 20
First Quarter

Hourly Weather History & Observations

Time (CDT) Temp. Windchill Dew Point Humidity Pressure Visibility Wind Dir Wind Speed Gust Speed Precip Events Conditions
12:53 AM 48.9 °F - 27.0 °F 43% 30.19 in 10.0 mi SSE 12.7 mph - N/A   Mostly Cloudy
1:53 AM 48.0 °F - 26.1 °F 42% 30.19 in 10.0 mi South 12.7 mph - N/A   Clear
2:53 AM 48.0 °F - 26.1 °F 42% 30.20 in 10.0 mi SSE 11.5 mph - N/A   Scattered Clouds
3:53 AM 46.9 °F - 25.0 °F 42% 30.19 in 10.0 mi SSE 13.8 mph - N/A   Clear
4:53 AM 45.0 °F 38.9 °F 25.0 °F 46% 30.19 in 10.0 mi SSE 12.7 mph - N/A   Clear
5:53 AM 43.0 °F 37.2 °F 25.0 °F 49% 30.20 in 10.0 mi SSE 10.4 mph - N/A   Scattered Clouds
6:53 AM 44.1 °F 37.7 °F 25.0 °F 47% 30.20 in 10.0 mi South 12.7 mph - N/A   Mostly Cloudy
7:53 AM 43.0 °F 36.4 °F 25.0 °F 49% 30.20 in 10.0 mi South 12.7 mph - N/A   Scattered Clouds
8:53 AM 45.0 °F 37.6 °F 26.1 °F 48% 30.20 in 10.0 mi South 17.3 mph 24.2 mph N/A   Partly Cloudy
9:53 AM 50.0 °F - 28.0 °F 43% 30.19 in 10.0 mi South 18.4 mph 26.5 mph N/A   Partly Cloudy
10:53 AM 53.1 °F - 28.9 °F 40% 30.18 in 10.0 mi South 18.4 mph 26.5 mph N/A   Clear
11:53 AM 57.9 °F - 30.0 °F 35% 30.15 in 10.0 mi SSW 23.0 mph 28.8 mph N/A   Clear
12:53 PM 63.0 °F - 30.9 °F 30% 30.12 in 10.0 mi SSW 20.7 mph - N/A   Clear
1:53 PM 64.9 °F - 30.9 °F 28% 30.09 in 10.0 mi SSW 17.3 mph 25.3 mph N/A   Clear
2:53 PM 68.0 °F - 30.9 °F 25% 30.07 in 10.0 mi SSW 20.7 mph 25.3 mph N/A   Clear
3:53 PM 69.1 °F - 32.0 °F 25% 30.05 in 10.0 mi SW 15.0 mph 23.0 mph N/A   Clear
4:53 PM 68.0 °F - 32.0 °F 26% 30.04 in 10.0 mi South 15.0 mph - N/A   Clear
5:53 PM 66.0 °F - 32.0 °F 28% 30.04 in 10.0 mi SSW 11.5 mph - N/A   Clear
6:53 PM 55.0 °F - 33.1 °F 43% 30.05 in 10.0 mi North - - N/A   Clear
7:53 PM 55.9 °F - 32.0 °F 40% 30.05 in 10.0 mi SSE 9.2 mph - N/A   Clear
8:53 PM 48.9 °F - 33.1 °F 54% 30.05 in 10.0 mi SSE 8.1 mph - N/A   Clear
9:53 PM 50.0 °F - 33.1 °F 52% 30.05 in 10.0 mi South 10.4 mph - N/A   Clear
10:53 PM 51.1 °F - 33.1 °F 50% 30.05 in 10.0 mi SSE 8.1 mph - N/A   Clear
11:53 PM 46.9 °F - 33.1 °F 59% 30.03 in 10.0 mi SSE 6.9 mph - N/A   Scattered Clouds